EHI
10 9 6 3 1 0 0 0 0 0 0 0 0 0 0 0 0 0 1 6 14 18 16 16 16 13 12 11 9 7 4 3 4 4 4 7 9 8 8 6 4 4 2 2 2 1 1 2 2
5 5 3 1 0 0 0 0 0 0 0 0 0 0 0 0 0 0 1 6 12 15 15 14 14 12 10 8 7 5 3 2 3 3 2 3 5 5 5 4 3 3 3 4 3 1 0 1 1
3 2 1 0 0 0 0 0 0 0 0 0 0 0 0 0 0 0 1 4 9 13 13 11 9 8 7 5 4 3 1 1 2 2 1 1 1 2 3 3 2 2 2 3 3 1 0 0 0
6 3 0 0 0 0 0 0 0 0 0 0 0 0 0 0 0 0 1 3 7 10 9 8 7 5 4 3 2 1 0 0 1 1 0 0 0 1 1 2 2 1 1 2 2 1 0 0 0
8 3 0 0 0 0 0 0 0 0 0 0 0 1 0 0 0 0 2 4 6 6 4 4 5 3 2 1 1 1 0 0 0 0 0 0 0 0 1 2 3 2 1 1 1 0 0 0 0
4 2 0 0 0 0 0 0 0 0 0 0 0 0 0 1 2 1 2 4 4 3 2 1 2 1 1 0 0 0 0 0 0 0 0 0 0 0 0 1 1 2 2 1 0 0 0 0 0
3 2 1 0 0 0 0 0 0 0 0 0 0 0 1 2 3 2 1 2 2 2 1 0 0 0 0 0 0 0 0 0 0 0 0 0 0 0 0 0 0 1 2 1 0 0 0 0 0
3 2 1 0 0 0 0 0 0 0 0 0 0 1 3 5 4 1 0 0 1 1 0 0 0 0 0 0 0 0 0 0 0 0 0 0 0 0 0 0 0 1 1 0 0 0 0 0 0
2 2 1 0 0 0 0 0 0 0 0 0 1 4 7 8 5 1 0 0 0 0 0 0 0 0 0 0 0 0 0 0 0 0 0 0 0 0 0 0 0 0 0 0 0 0 0 0 0
1 1 0 0 0 0 0 0 0 0 0 1 3 7 8 7 4 1 0 0 0 0 0 0 0 0 0 0 0 0 0 0 0 0 0 0 0 0 0 0 0 0 0 0 0 0 0 0 0
0 0 0 0 0 0 0 0 0 0 0 1 4 7 6 3 2 1 0 0 0 0 0 0 0 0 0 0 0 0 0 0 0 0 0 0 0 0 0 0 0 0 0 0 0 0 0 0 0
0 0 0 0 1 1 0 0 0 0 0 1 3 5 3 1 0 0 0 0 0 0 0 0 0 0 0 0 0 0 0 0 0 0 0 0 0 0 0 0 0 0 0 0 0 0 0 0 0
0 0 0 0 1 1 0 0 0 0 0 1 2 3 2 1 0 0 0 0 0 0 0 0 0 0 0 0 0 0 0 0 0 0 0 0 0 0 0 0 0 0 0 0 0 0 0 0 0
0 0 0 0 1 1 0 0 0 0 0 0 1 1 1 0 0 0 0 0 0 0 0 0 0 0 0 0 0 0 0 0 0 0 0 0 0 0 0 0 0 0 0 0 0 0 0 0 0
0 0 0 0 0 0 0 0 0 0 0 0 1 1 0 0 0 0 0 0 0 0 0 0 0 0 0 0 0 0 0 0 0 0 0 0 0 0 0 0 0 0 0 0 0 0 0 0 0
0 0 0 0 0 0 0 0 0 0 0 0 0 1 1 0 0 0 0 0 0 0 0 0 0 0 0 0 0 0 0 0 0 0 0 0 0 0 0 0 0 0 0 0 0 0 0 0 0
0 0 0 0 0 0 0 1 1 1 0 0 0 0 0 0 0 0 0 0 0 0 0 0 0 0 0 0 0 0 0 0 0 0 0 0 0 0 0 0 0 0 0 0 0 0 0 0 0
0 0 0 0 1 0 0 1 1 1 0 0 0 0 0 0 0 0 0 0 0 0 0 0 0 0 0 0 0 0 0 0 0 0 0 0 0 0 0 0 0 0 0 0 0 0 0 0 0
0 0 0 0 0 0 0 0 0 1 1 0 0 0 0 0 1 1 0 0 0 0 0 0 0 0 0 0 0 0 0 0 0 0 0 0 0 0 0 0 0 0 0 0 0 0 0 0 0
0 0 0 0 0 0 0 0 0 0 0 0 0 0 0 1 2 2 1 0 0 0 0 0 0 0 0 0 0 0 0 0 0 0 0 0 0 0 0 0 0 0 0 0 0 0 0 0 0
0 0 0 0 0 0 0 0 0 0 0 0 0 0 0 1 2 2 1 0 0 0 0 0 0 0 0 0 0 0 0 0 0 0 0 0 0 0 0 0 0 0 0 0 0 0 0 0 0
0 0 0 0 0 0 0 0 0 0 0 0 0 0 0 0 1 1 1 0 0 0 0 0 0 0 0 0 0 0 0 0 0 0 0 0 0 0 0 0 0 0 0 0 0 0 0 0 0
0 0 0 0 0 0 0 0 0 0 0 0 0 0 0 0 0 0 0 0 0 0 0 0 0 0 0 0 0 0 0 0 0 0 0 0 0 0 0 0 0 0 0 0 0 0 0 0 0
0 0 0 0 0 0 0 0 0 0 0 0 0 0 0 0 0 0 0 0 0 0 0 0 0 0 0 0 0 0 0 0 0 0 0 0 0 0 0 0 0 0 0 0 0 0 0 0 0
0 0 0 0 0 0 0 0 0 0 0 0 0 0 0 0 0 0 0 0 0 0 0 0 0 0 0 0 0 0 0 0 0 0 0 0 0 0 0 0 0 0 0 0 0 0 0 0 0
0 0 0 0 0 0 0 0 0 0 0 0 0 0 0 0 0 1 1 1 0 0 0 0 0 0 0 0 0 0 0 0 0 0 0 0 0 0 0 0 0 0 0 0 0 0 0 0 0
0 0 0 0 0 0 0 0 0 0 0 0 0 0 0 0 1 2 2 1 0 0 0 0 0 0 0 0 0 0 0 0 0 0 0 0 0 0 0 0 0 0 0 0 0 0 0 0 0
0 0 0 0 0 0 0 0 0 0 0 0 0 0 0 0 1 2 1 0 0 1 0 0 0 0 0 0 0 0 0 0 0 0 0 0 0 0 0 0 0 0 0 0 0 0 0 0 0
0 0 0 0 0 0 0 0 0 0 0 0 0 0 0 1 2 2 1 0 0 0 0 0 0 0 0 0 0 0 0 0 0 0 0 0 0 0 0 0 0 0 0 0 0 0 0 0 0
0 0 0 0 0 0 0 0 0 0 0 0 0 0 1 2 2 1 0 0 0 0 0 0 0 0 0 0 0 0 0 0 0 0 0 0 0 0 0 0 0 0 0 0 0 0 0 0 0
Wind_Speed
7 7 4 2 2 3 2 1 3 2 2 4 6 8 11 11 8 7 2 5 10 12 12 11 11 10 9 8 7 6 6 5 5 5 5 4 4 4 4 3 3 4 4 3 3 3 3 4 4
7 6 3 2 3 2 1 2 4 4 3 3 5 9 12 11 10 8 4 6 9 11 10 10 11 10 9 7 6 6 5 4 4 3 3 3 3 3 3 3 3 3 4 4 4 3 3 3 3
8 5 3 3 3 1 2 2 4 5 4 4 5 9 9 7 9 6 5 8 10 11 11 10 10 9 8 7 6 5 4 3 2 1 1 1 2 2 3 3 3 3 4 4 4 4 4 4 3
4 3 4 4 5 1 3 3 3 5 3 4 6 9 9 8 7 8 8 9 11 11 11 10 10 9 8 7 5 4 4 3 1 0 1 2 2 2 2 2 3 3 4 4 4 5 5 5 4
2 3 4 5 2 2 2 3 3 4 4 5 8 10 9 10 10 10 8 8 9 10 10 10 10 9 8 6 5 4 3 2 0 2 3 4 4 4 4 4 4 4 4 5 5 5 5 5 5
2 3 4 3 1 2 1 2 2 4 4 4 7 9 8 9 9 7 7 7 8 8 9 10 11 10 8 6 5 3 1 0 1 3 4 5 6 6 6 6 6 6 5 5 5 5 6 6 6
3 3 5 3 1 1 1 1 2 3 4 5 4 7 9 10 8 7 7 7 6 6 6 6 7 8 8 7 6 4 2 2 3 4 5 6 8 9 9 9 9 8 7 6 6 6 6 6 6
3 4 6 2 2 1 2 1 2 4 4 4 3 6 9 10 9 8 6 6 4 5 5 4 3 5 5 6 7 5 4 4 5 6 7 8 9 11 12 11 11 10 9 8 8 7 7 7 7
4 3 4 2 2 1 3 2 2 2 3 3 8 9 11 13 11 8 6 5 4 4 3 4 3 4 2 2 6 5 5 6 6 7 10 8 5 6 7 9 10 11 10 9 9 9 9 8 8
5 3 4 1 1 2 2 1 1 2 3 4 9 11 12 11 10 7 6 5 5 4 3 4 3 3 3 2 2 1 0 2 3 2 3 3 3 2 3 5 9 11 11 10 11 11 9 7 4
6 5 3 2 2 1 2 1 2 0 2 2 7 11 10 9 8 6 5 5 5 4 4 4 3 3 3 2 2 1 1 0 1 2 1 1 2 1 1 2 4 6 8 6 7 7 5 5 4
8 5 2 1 0 1 0 1 2 1 2 3 6 10 9 8 8 6 4 5 5 5 4 4 3 3 3 3 2 1 0 1 1 2 3 1 1 2 1 1 1 2 3 3 3 3 4 5 5
9 5 3 2 1 2 2 2 2 2 3 5 7 9 8 7 6 6 5 5 5 5 3 4 4 5 4 2 1 1 1 1 1 1 3 2 2 2 2 2 1 2 2 2 3 3 4 3 3
5 6 4 3 3 3 4 4 5 4 5 5 7 7 7 5 4 4 5 4 5 5 4 5 4 4 3 3 2 2 2 0 1 1 3 3 1 2 2 3 2 2 2 2 2 3 2 3 2
6 6 5 4 5 4 4 6 6 5 6 6 6 7 6 5 5 4 4 4 4 4 5 5 2 3 4 4 4 3 2 2 2 2 3 3 2 3 2 2 2 2 2 2 1 2 1 2 3
6 6 4 4 5 4 4 5 2 5 6 7 6 7 6 5 4 5 5 4 5 4 5 4 3 4 4 3 3 2 2 3 2 2 3 5 4 3 2 2 2 3 2 2 1 1 1 1 2
5 6 6 5 6 6 6 4 5 6 6 7 7 7 8 7 6 5 6 5 5 4 4 4 4 2 3 2 1 1 2 1 1 2 2 4 5 4 3 2 2 3 2 2 3 1 1 1 2
4 6 4 4 6 8 7 6 6 9 9 7 7 8 9 8 8 7 6 5 5 3 4 5 3 2 2 2 2 2 2 2 2 1 2 3 3 4 4 3 3 2 2 2 2 2 2 1 2
5 6 5 2 4 6 7 8 6 8 8 8 8 8 9 9 9 8 8 6 5 4 3 4 2 3 2 2 2 2 1 2 1 1 2 2 3 3 3 3 3 2 2 2 2 1 2 2 1
7 8 7 2 2 5 7 8 7 7 9 8 7 8 8 9 10 10 8 7 4 4 3 3 3 3 3 2 1 1 1 2 1 1 1 3 3 3 4 3 2 2 2 2 2 1 1 1 1
9 6 5 4 7 9 8 8 7 6 7 7 6 5 5 7 10 12 9 8 5 4 4 2 3 3 3 2 1 2 1 2 1 1 1 2 2 2 2 4 3 3 2 1 2 1 1 1 1
4 4 5 6 6 6 6 5 4 6 7 7 6 5 4 5 7 9 8 7 6 5 4 3 3 3 3 2 2 2 2 1 2 2 1 2 1 2 2 3 3 3 1 1 2 1 1 0 1
1 3 7 8 8 9 9 7 2 8 7 8 8 7 5 5 7 8 8 7 6 6 4 2 3 3 4 2 1 2 2 2 2 2 2 2 1 1 2 3 3 3 2 1 1 1 1 0 0
2 6 9 9 7 8 5 3 2 2 4 5 7 7 7 6 7 7 8 7 6 6 5 3 3 4 3 1 1 1 1 2 2 3 2 2 1 1 2 2 3 2 2 2 2 1 1 0 0
5 6 4 3 3 2 1 2 1 5 6 4 4 5 6 7 7 7 8 7 6 7 5 4 4 3 3 2 1 1 1 1 1 2 2 2 2 2 2 3 3 2 2 2 1 1 1 0 0
5 6 2 3 5 5 4 3 5 8 6 5 3 3 4 6 6 7 8 8 7 7 6 4 4 3 3 2 1 1 1 0 1 1 2 2 2 1 2 2 2 2 2 3 2 1 1 0 0
5 4 3 5 9 7 4 2 7 7 6 5 4 4 4 5 6 7 8 8 8 7 6 5 5 4 4 2 1 1 1 1 1 1 1 1 2 2 3 3 2 1 1 1 2 1 2 1 1
6 6 4 3 5 5 5 3 4 6 4 4 5 5 5 5 6 7 8 8 8 7 6 6 5 4 4 3 2 2 1 1 0 1 2 2 2 2 2 3 2 2 1 1 1 1 1 1 1
6 6 5 4 5 5 5 3 4 4 3 2 2 5 6 7 7 7 7 7 7 7 7 6 6 5 4 3 2 2 1 0 1 0 0 1 1 1 2 2 2 2 2 2 2 1 1 2 2
4 6 5 4 5 6 5 2 3 4 3 2 2 3 4 6 7 7 8 8 7 7 7 7 6 5 5 3 3 3 2 2 1 0 0 1 1 1 2 2 2 3 3 3 2 2 2 2 2
Wind_Direction
186 194 202 218 244 239 254 70 86 70 43 28 23 54 67 56 48 82 113 83 99 106 109 105 101 98 95 93 91 87 82 74 65 55 46 34 27 21 12 1 358 354 354 357 0 358 4 7 11
206 188 211 235 253 263 58 78 85 76 61 40 43 59 71 67 70 87 91 93 100 102 105 102 101 97 92 89 87 85 80 71 64 55 44 32 18 5 359 349 341 335 331 327 330 331 333 338 348
220 214 237 239 255 289 97 99 97 79 48 44 61 62 56 67 72 90 108 109 102 99 100 100 100 96 91 86 82 79 77 67 62 49 17 351 343 343 346 335 335 331 319 311 312 311 306 308 312
202 222 247 248 263 4 88 100 91 90 65 53 70 77 70 65 87 112 121 114 108 106 107 110 107 102 97 89 82 74 69 62 47 266 245 262 286 298 307 302 311 315 315 313 312 307 298 293 294
216 244 254 254 271 73 71 92 89 87 68 57 70 92 92 89 103 110 111 109 109 111 116 123 121 117 112 102 92 79 69 63 316 259 248 246 254 262 261 258 267 277 290 304 305 299 296 288 284
237 248 262 278 61 94 66 50 74 78 78 77 89 100 105 114 107 106 102 94 100 110 118 126 136 137 136 129 117 98 84 226 269 266 258 254 252 253 255 247 249 256 263 277 288 290 289 286 277
246 264 268 281 114 136 98 51 73 92 79 56 75 107 122 119 115 113 102 93 93 102 108 126 145 147 146 138 132 136 159 221 245 250 250 250 248 249 248 243 243 246 251 258 266 277 281 278 270
242 281 288 285 99 103 98 67 50 70 65 56 43 97 128 131 130 116 111 110 114 107 104 107 121 122 139 150 153 163 183 207 229 238 241 245 249 247 244 239 237 238 241 247 255 263 270 271 267
251 261 285 318 71 133 138 143 105 90 106 89 70 84 121 134 135 135 139 139 129 109 114 115 99 103 122 166 150 180 199 207 227 233 231 238 246 240 235 228 225 227 233 239 244 251 255 259 256
213 242 270 337 74 122 138 127 141 157 125 110 106 108 123 141 146 154 160 149 131 114 83 77 73 86 76 25 93 101 182 189 233 247 225 227 248 253 249 208 220 227 232 237 241 245 248 248 242
224 233 278 325 336 121 146 171 252 252 108 117 133 136 144 156 156 163 153 128 116 102 77 66 52 57 66 61 54 27 300 262 289 324 305 276 290 276 244 199 215 225 230 231 234 234 230 229 230
239 249 226 256 320 324 237 171 240 105 97 94 120 140 156 172 164 158 141 118 113 92 69 54 33 45 48 57 14 260 0 19 348 351 335 337 330 303 289 251 216 214 221 213 222 218 225 231 234
236 249 240 212 249 259 257 228 238 176 151 141 143 149 163 170 154 148 132 122 120 109 103 73 33 35 27 57 305 8 50 16 350 353 317 348 349 318 319 282 255 248 242 214 216 221 230 240 244
225 235 231 221 232 240 249 239 224 202 172 160 152 159 168 157 145 141 138 139 120 109 93 80 44 39 19 18 2 25 7 345 0 359 323 344 328 304 314 311 304 285 268 254 226 221 218 242 242
221 233 234 232 238 231 261 254 227 179 170 172 171 172 163 157 156 158 133 120 105 100 91 85 59 42 36 23 2 2 343 12 15 5 339 343 342 333 335 328 324 314 295 281 275 272 231 244 242
228 233 242 253 252 221 237 271 173 154 181 182 182 171 158 163 183 152 129 116 104 96 88 86 52 43 48 34 343 343 5 14 357 3 355 342 342 346 339 332 318 307 315 318 285 258 260 260 256
230 228 227 220 225 234 225 260 173 178 204 195 186 179 169 178 187 152 134 125 111 109 111 102 74 43 54 24 309 5 15 349 348 9 13 345 341 346 350 319 300 314 333 326 305 323 293 269 263
246 260 238 201 204 235 241 254 197 190 204 208 193 189 182 187 177 155 138 126 123 122 116 106 109 87 64 36 358 24 10 341 9 16 27 350 331 342 336 310 324 336 332 320 311 313 307 271 249
264 279 281 240 199 235 256 262 230 197 192 203 203 202 194 183 165 147 141 139 142 137 117 114 114 102 84 58 3 358 347 324 1 354 22 338 340 345 323 324 328 332 324 311 308 312 309 297 267
249 268 276 310 266 261 268 268 244 201 195 202 211 209 199 173 158 144 151 147 158 143 130 126 106 90 88 85 349 305 349 321 350 331 356 346 351 345 330 336 324 317 293 301 299 294 288 290 283
240 261 300 322 291 273 273 270 244 189 187 184 204 222 208 174 164 156 159 151 158 150 142 128 114 118 105 101 43 1 348 301 342 348 24 339 338 345 338 330 323 312 311 299 286 282 282 276 290
258 306 299 293 289 299 287 292 264 167 170 184 186 202 213 171 153 148 152 154 160 151 139 143 127 112 102 93 67 333 303 1 1 349 10 311 1 7 353 328 321 313 323 320 306 337 291 244 289
264 283 288 284 282 284 275 274 263 150 172 184 180 187 190 166 151 148 151 153 154 138 131 131 119 107 95 85 113 287 352 7 352 343 5 334 27 1 6 335 324 329 336 340 322 327 305 275 223
279 274 266 255 262 268 267 275 317 130 138 149 157 168 169 161 150 148 144 139 133 122 124 128 123 111 111 135 193 200 30 1 340 351 2 330 332 354 22 342 334 346 349 346 343 331 332 44 285
247 276 301 293 241 280 341 265 160 99 92 101 131 154 152 150 152 150 144 141 138 136 142 152 149 139 142 188 216 134 85 335 346 0 342 325 349 8 9 354 346 357 345 338 344 322 306 274 128
242 256 273 316 317 312 273 232 112 110 100 99 107 117 134 147 153 154 149 146 147 150 156 166 158 153 154 198 194 131 123 294 23 10 325 343 2 354 352 342 341 348 349 348 350 327 309 1 59
272 268 289 285 288 286 277 126 119 121 129 143 157 154 167 160 153 151 150 151 154 159 162 169 163 168 162 187 174 123 105 87 35 323 322 354 344 358 4 336 335 356 16 359 356 356 356 6 27
279 309 310 287 305 309 315 340 99 125 134 156 179 181 181 167 160 157 154 157 159 162 163 167 168 169 161 175 192 142 110 92 46 326 18 0 351 9 336 342 354 10 32 48 38 19 0 10 38
218 250 269 281 280 297 319 355 61 103 106 149 194 184 179 169 164 161 156 159 159 158 162 169 173 172 160 170 179 140 150 182 239 205 56 308 321 351 338 342 358 21 31 40 52 18 29 26 13
287 289 293 296 307 312 303 316 93 115 130 165 193 184 171 161 159 158 158 160 162 167 173 176 177 169 158 168 169 165 168 174 238 214 144 301 325 337 339 358 18 30 39 35 33 14 51 59 23